Flag for Canada Weather past 2 weeks in Camrose, Alberta, Canada

Now
36 °F

Partly sunny.


Feels Like: 31 °F
Forecast: 24 / 37 °F
Wind: 6 mph from Southwest

Location: Edmonton International

Current Time: Mar 5, 2015 at 6:12:07 PM

Latest Report: Mar 5, 2015 at 5:00 PM


Visibility: 15 mi

Pressure: 30.07 "Hg

Humidity: 65%

Dew point: 25 °F

Location of CamroseLocation

Historic Weather in Camrose — Graph

°F

Camrose temperature yesterday

Maximum temperature yesterday: 21 °F (at 5:00 PM)
Minimum temperature yesterday: -6 °F (at 2:00 AM)
Average temperature yesterday: 6 °F

Past Weeks' High & Low Weather Summary

 TemperatureHumidityPressure
High43 °F (Feb 19, 12:00 PM)93% (Feb 19, 3:00 AM)30.76 "Hg (Feb 19, 3:00 AM)
Low-9 °F (Mar 3, 11:00 PM)44% (Feb 21, 3:00 PM)29.86 "Hg (Feb 24, 11:00 AM)
Average17 °F71%30.27 "Hg
* Reported Feb 18 5:00 PM — Mar 5 5:00 PM, Camrose, Weather by CustomWeather, © 2015

Note: Actual official high and low records may vary slightly from our data, if they occured in-between our weather recording intervals... More about our weather records

Advertising

Camrose weather history for previous 24 hours

 ConditionsComfort  
Time TempWeatherWind HumidityBarometerVisibility
5:00 PM
Thu, Mar 5
36 °FPartly sunny.6 mph65%30.07 "Hg15 mi
4:00 PM36 °FPartly sunny.6 mph65%30.07 "Hg15 mi
3:00 PM36 °FBroken clouds.9 mph70%30.08 "Hg15 mi
2:00 PM37 °FPartly sunny.9 mph60%30.08 "Hg15 mi
1:00 PM39 °FPartly sunny.9 mph52%30.09 "Hg15 mi
12:00 PM37 °FBroken clouds.7 mph52%30.10 "Hg15 mi
11:00 AM34 °FPartly sunny.8 mph56%30.10 "Hg15 mi
10:00 AM34 °FPartly sunny.12 mph51%30.09 "Hg15 mi
9:00 AM28 °FBroken clouds.9 mph55%30.09 "Hg15 mi
8:00 AM27 °FBroken clouds.9 mph59%30.09 "Hg15 mi
7:00 AM27 °FPassing clouds.8 mph54%30.06 "Hg15 mi
6:00 AM23 °FPassing clouds.14 mph58%30.05 "Hg15 mi
5:00 AM16 °FPartly cloudy.8 mph62%30.05 "Hg15 mi
4:00 AM18 °FPassing clouds.7 mph62%30.04 "Hg15 mi
3:00 AM18 °FPassing clouds.7 mph62%30.05 "Hg15 mi
2:00 AM19 °FPassing clouds.13 mph53%30.06 "Hg15 mi
1:00 AM16 °FPassing clouds.5 mph57%30.06 "Hg15 mi
12:00 AM16 °FPassing clouds.6 mph53%30.06 "Hg15 mi
11:00 PM
Wed, Mar 4
14 °FClear.7 mph62%30.08 "Hg15 mi
10:00 PM16 °FPassing clouds.6 mph53%30.07 "Hg15 mi
9:00 PM10 °FPassing clouds.9 mph67%30.07 "Hg15 mi
8:00 PM10 °FPassing clouds.7 mph67%30.09 "Hg15 mi
7:00 PM18 °FPassing clouds.5 mph62%30.07 "Hg15 mi
6:00 PM19 °FPassing clouds.3 mph58%30.06 "Hg15 mi
Weather by CustomWeather, © 2015

See weather overviewHow to use our weather pages